Location: Bishopstone
(51.0167°N, 1.9000°W)
Time: 12:19:56
(UTC+00:00)

Meteor 2-12 Rocket - Pass Details

Date: 16 September 2019
Orbit: 936 x 957 km, 82.5° (Epoch: 14 October)

Event Time Altitude Azimuth Distance (km) Brightness Sun altitude
Rises 21:12:43 0° 350° (N) 3,616 8.2 -25.5°
Reaches altitude 10° 21:15:13 10° 353° (N) 2,670 7.4 -25.8°
Maximum altitude 21:21:19 72° 77° (ENE) 996 4.3 -26.5°
Enters shadow 21:21:48 68° 112° (ESE) 1,015 4.3 -26.5°
